• în România
  • Lista ţărilor
  • Pe 7 zile
  • Temperatura apei
  • Hartă satelitară
  • Meteo pe hartă
  • Widget-uri
  • user-avatar
    Intrare

    Meteo pe oră la Ituni

    Astăzi, 25 Mai, Vineri

    Timp Temperatura Precipitaţii Vânt Presiune Umiditate
    00:00 +23°C° 0,6 mm 0 m/s 754 mmHg 99%
    01:00 +23°C° 0,6 mm 0 m/s 754 mmHg 99%
    02:00 +22°C° 0,6 mm 0 m/s 754 mmHg 99%
    03:00 +22°C° 1,1 mm 0 m/s 754 mmHg 99%
    04:00 +22°C° 1,1 mm 0 m/s 754 mmHg 99%
    05:00 +22°C° 1,1 mm 0 m/s 754 mmHg 99%
    06:00 +23°C° 0,6 mm 0 m/s 754 mmHg 97%
    07:00 +24°C° 0,6 mm 0 m/s 754 mmHg 95%
    08:00 +25°C° 0,6 mm 0 m/s 755 mmHg 93%
    09:00 +25°C° 0,6 mm 0 m/s 755 mmHg 90%
    10:00 +28°C° 0,6 mm 1 m/s 754 mmHg 86%
    11:00 +29°C° 0,6 mm 1 m/s 754 mmHg 82%
    12:00 +30°C° 0,9 mm 1 m/s 753 mmHg 82%
    13:00 +30°C° 0,9 mm 1 m/s 753 mmHg 82%
    14:00 +30°C° 0,9 mm 2 m/s 752 mmHg 82%
    15:00 +29°C° 0,5 mm 2 m/s 752 mmHg 85%
    16:00 +29°C° 0,5 mm 2 m/s 751 mmHg 88%
    17:00 +28°C° 0,5 mm 2 m/s 751 mmHg 90%
    18:00 +27°C° 0,3 mm 1 m/s 752 mmHg 93%
    19:00 +26°C° 0,3 mm 1 m/s 752 mmHg 95%
    20:00 +25°C° 0,3 mm 1 m/s 753 mmHg 98%
    21:00 +25°C° 0,4 mm 1 m/s 753 mmHg 98%
    22:00 +25°C° 0,4 mm 1 m/s 753 mmHg 98%
    23:00 +25°C° 0,4 mm 1 m/s 754 mmHg 99%

    Mâine, 26 Mai, Sâmbătă

    Timp Temperatura Precipitaţii Vânt Presiune Umiditate
    00:00 +23°C° 1,3 mm 0 m/s 753 mmHg 99%
    01:00 +22°C° 1,3 mm 0 m/s 753 mmHg 99%
    02:00 +22°C° 1,3 mm 0 m/s 752 mmHg 99%
    03:00 +22°C° 0,7 mm 0 m/s 752 mmHg 99%
    04:00 +22°C° 0,7 mm 0 m/s 752 mmHg 99%
    05:00 +22°C° 0,7 mm 0 m/s 752 mmHg 99%
    06:00 +23°C° 0,2 mm 0 m/s 753 mmHg 97%
    07:00 +24°C° 0,2 mm 0 m/s 753 mmHg 95%
    08:00 +25°C° 0,2 mm 0 m/s 754 mmHg 93%
    09:00 +27°C° 0,5 mm 1 m/s 754 mmHg 90%
    10:00 +28°C° 0,5 mm 1 m/s 754 mmHg 88%
    11:00 +29°C° 0,5 mm 1 m/s 754 mmHg 85%
    12:00 +29°C° 0,9 mm 1 m/s 753 mmHg 86%
    13:00 +29°C° 0,9 mm 1 m/s 752 mmHg 87%
    14:00 +29°C° 0,9 mm 1 m/s 751 mmHg 88%
    15:00 +29°C° 0,7 mm 1 m/s 751 mmHg 90%
    16:00 +28°C° 0,7 mm 1 m/s 751 mmHg 91%
    17:00 +28°C° 0,7 mm 1 m/s 751 mmHg 93%
    18:00 +27°C° 0,5 mm 1 m/s 751 mmHg 95%
    19:00 +26°C° 0,5 mm 1 m/s 752 mmHg 96%
    20:00 +25°C° 0,5 mm 1 m/s 753 mmHg 97%
    21:00 +25°C° 0,3 mm 1 m/s 753 mmHg 98%
    22:00 +25°C° 0,3 mm 1 m/s 754 mmHg 98%
    23:00 +25°C° 0,3 mm 1 m/s 754 mmHg 98%

    Poimâine, 27 Mai, Duminică

    Timp Temperatura Precipitaţii Vânt Presiune Umiditate
    00:00 +23°C° 0,6 mm 0 m/s 753 mmHg 99%
    01:00 +22°C° 0,6 mm 0 m/s 753 mmHg 99%
    02:00 +22°C° 0,6 mm 0 m/s 752 mmHg 99%
    03:00 +22°C° 0,8 mm 0 m/s 753 mmHg 99%
    04:00 +22°C° 0,8 mm 0 m/s 753 mmHg 99%
    05:00 +22°C° 0,8 mm 0 m/s 753 mmHg 99%
    06:00 +23°C° 0,5 mm 0 m/s 753 mmHg 97%
    07:00 +24°C° 0,5 mm 0 m/s 754 mmHg 95%
    08:00 +26°C° 0,5 mm 1 m/s 754 mmHg 93%
    09:00 +27°C° 0,5 mm 1 m/s 754 mmHg 90%
    10:00 +28°C° 0,5 mm 1 m/s 754 mmHg 87%
    11:00 +29°C° 0,5 mm 1 m/s 754 mmHg 84%
    12:00 +29°C° 1,1 mm 1 m/s 754 mmHg 86%
    13:00 +29°C° 1,1 mm 2 m/s 753 mmHg 88%
    14:00 +29°C° 1,1 mm 2 m/s 752 mmHg 90%
    15:00 +28°C° 0,7 mm 2 m/s 752 mmHg 91%
    16:00 +28°C° 0,7 mm 1 m/s 752 mmHg 93%
    17:00 +27°C° 0,7 mm 1 m/s 752 mmHg 94%
    18:00 +27°C° 0,8 mm 1 m/s 752 mmHg 95%
    19:00 +26°C° 0,8 mm 1 m/s 753 mmHg 97%
    20:00 +25°C° 0,8 mm 1 m/s 753 mmHg 98%
    21:00 +25°C° 0,9 mm 1 m/s 754 mmHg 98%
    22:00 +25°C° 0,9 mm 1 m/s 754 mmHg 98%
    23:00 +25°C° 0,9 mm 1 m/s 754 mmHg 99%

    28 Mai, Luni

    Timp Temperatura Precipitaţii Vânt Presiune Umiditate
    00:00 +23°C° 0,9 mm 0 m/s 754 mmHg 99%
    01:00 +22°C° 0,9 mm 0 m/s 753 mmHg 99%
    02:00 +22°C° 0,9 mm 0 m/s 753 mmHg 99%
    03:00 +22°C° 0,8 mm 0 m/s 753 mmHg 99%
    04:00 +22°C° 0,8 mm 0 m/s 753 mmHg 99%
    05:00 +22°C° 0,8 mm 0 m/s 753 mmHg 99%
    06:00 +23°C° 0,6 mm 0 m/s 754 mmHg 98%
    07:00 +23°C° 0,6 mm 0 m/s 754 mmHg 97%
    08:00 +24°C° 0,6 mm 0 m/s 755 mmHg 96%
    09:00 +26°C° 0,4 mm 1 m/s 755 mmHg 94%
    10:00 +27°C° 0,4 mm 1 m/s 755 mmHg 93%
    11:00 +27°C° 0,4 mm 1 m/s 755 mmHg 91%
    12:00 +28°C° 0,5 mm 1 m/s 754 mmHg 89%
    13:00 +28°C° 0,5 mm 2 m/s 753 mmHg 87%
    14:00 +29°C° 0,5 mm 2 m/s 753 mmHg 86%
    15:00 +28°C° 0,5 mm 2 m/s 752 mmHg 87%
    16:00 +28°C° 0,5 mm 2 m/s 752 mmHg 89%
    17:00 +27°C° 0,5 mm 2 m/s 752 mmHg 90%
    18:00 +27°C° 0,1 mm 1 m/s 753 mmHg 92%
    19:00 +26°C° 0,1 mm 1 m/s 753 mmHg 95%
    20:00 +25°C° 0,1 mm 1 m/s 754 mmHg 97%
    21:00 +25°C° 0 mm 1 m/s 754 mmHg 98%
    22:00 +24°C° 0 mm 1 m/s 754 mmHg 98%
    23:00 +22°C° 0 mm 0 m/s 754 mmHg 98%

    29 Mai, Marţi

    Timp Temperatura Precipitaţii Vânt Presiune Umiditate
    00:00 +22°C° 0,1 mm 0 m/s 754 mmHg 98%
    01:00 +22°C° 0,1 mm 0 m/s 753 mmHg 98%
    02:00 +22°C° 0,1 mm 0 m/s 753 mmHg 98%
    03:00 +22°C° 0,1 mm 0 m/s 753 mmHg 98%
    04:00 +22°C° 0,1 mm 0 m/s 753 mmHg 98%
    05:00 +22°C° 0,1 mm 0 m/s 753 mmHg 98%
    06:00 +25°C° 0,3 mm 1 m/s 754 mmHg 96%
    07:00 +26°C° 0,3 mm 1 m/s 754 mmHg 93%
    08:00 +27°C° 0,3 mm 1 m/s 755 mmHg 90%
    09:00 +28°C° 0,7 mm 1 m/s 754 mmHg 86%
    10:00 +29°C° 0,7 mm 2 m/s 754 mmHg 82%
    11:00 +30°C° 0,7 mm 2 m/s 754 mmHg 77%
    12:00 +30°C° 0,7 mm 2 m/s 753 mmHg 77%
    13:00 +30°C° 0,7 mm 2 m/s 753 mmHg 77%
    14:00 +30°C° 0,7 mm 2 m/s 752 mmHg 77%
    15:00 +29°C° 0,7 mm 2 m/s 752 mmHg 82%
    16:00 +28°C° 0,7 mm 2 m/s 752 mmHg 87%
    17:00 +28°C° 0,7 mm 1 m/s 752 mmHg 92%
    18:00 +27°C° 0,3 mm 1 m/s 753 mmHg 94%
    19:00 +26°C° 0,3 mm 1 m/s 753 mmHg 95%
    20:00 +25°C° 0,3 mm 1 m/s 754 mmHg 97%
    21:00 +25°C° 0 mm 1 m/s 754 mmHg 98%
    22:00 +23°C° 0 mm 0 m/s 754 mmHg 98%
    23:00 +23°C° 0 mm 0 m/s 754 mmHg 98%

    30 Mai, Miercuri

    Timp Temperatura Precipitaţii Vânt Presiune Umiditate
    00:00 +23°C° 0,2 mm 0 m/s 754 mmHg 98%
    01:00 +22°C° 0,2 mm 0 m/s 753 mmHg 98%
    02:00 +22°C° 0,2 mm 0 m/s 752 mmHg 98%
    03:00 +22°C° 0,5 mm 0 m/s 752 mmHg 99%
    04:00 +22°C° 0,5 mm 0 m/s 753 mmHg 99%
    05:00 +22°C° 0,5 mm 0 m/s 753 mmHg 99%
    06:00 +23°C° 0,8 mm 0 m/s 753 mmHg 97%
    07:00 +24°C° 0,8 mm 0 m/s 754 mmHg 96%
    08:00 +24°C° 0,8 mm 0 m/s 754 mmHg 94%
    09:00 +27°C° 0,6 mm 1 m/s 754 mmHg 90%
    10:00 +28°C° 0,6 mm 1 m/s 754 mmHg 87%
    11:00 +29°C° 0,6 mm 1 m/s 754 mmHg 83%
    12:00 +29°C° 1 mm 1 m/s 753 mmHg 85%
    13:00 +29°C° 1 mm 1 m/s 752 mmHg 87%
    14:00 +29°C° 1 mm 1 m/s 752 mmHg 89%
    15:00 +28°C° 0,8 mm 1 m/s 752 mmHg 91%
    16:00 +28°C° 0,8 mm 1 m/s 751 mmHg 93%
    17:00 +27°C° 0,8 mm 1 m/s 751 mmHg 95%
    18:00 +27°C° 0,5 mm 1 m/s 752 mmHg 96%
    19:00 +26°C° 0,5 mm 1 m/s 752 mmHg 97%
    20:00 +25°C° 0,5 mm 1 m/s 753 mmHg 98%
    21:00 +25°C° 0,5 mm 1 m/s 753 mmHg 98%
    22:00 +25°C° 0,5 mm 1 m/s 753 mmHg 99%
    23:00 +25°C° 0,5 mm 1 m/s 753 mmHg 99%
    Arată mai mult